Location: �bnet
(46.9957°N, 8.4908°E)
Time: 04:20:19
(UTC+00:00)

Cosmos 2082 Rocket - Pass Details

Date: 11 May 2021
Orbit: 834 x 853 km, 71.0° (Epoch: 23 June)

Event Time Altitude Azimuth Distance (km) Brightness Sun altitude
Rises 19:52:25 0° 338° (NNW) 3,392 6.6 -9.6°
Reaches altitude 10° 19:55:13 10° 350° (N) 2,455 5.4 -10.0°
Maximum altitude 20:00:03 29° 49° (NE) 1,505 3.5 -10.6°
Enters shadow 20:04:33 11° 106° (ESE) 2,347 4.0 -11.2°
